This is the latest recevied weather packets stored in our database for station/object WD7OO. If no packets are shown the sender has not sent any weather packets the latest 10 day(s).
| Time | Temp. | Humidity | Pressure | Rain* | Wind** | Luminosity | Snow |
|---|---|---|---|---|---|---|---|
| 1778090417 | 12.78° C | 42% | 1014.3 hPa | 0 mm | - | 436 W/m² | - |
| 1778090114 | 12.78° C | 41% | 1014.2 hPa | 0 mm | - | 432 W/m² | - |
| 1778089810 | 13.33° C | 45% | 1014 hPa | 0 mm | - | 555 W/m² | - |
| 1778089509 | 13.33° C | 46% | 1013.9 hPa | 0 mm | - | 432 W/m² | - |
| 1778089204 | 12.78° C | 43% | 1014.1 hPa | 0 mm | - | 632 W/m² | - |
| 1778088903 | 12.78° C | 40% | 1014.2 hPa | 0 mm | - | 360 W/m² | - |
| 1778088599 | 12.22° C | 42% | 1013.8 hPa | 0 mm | - | 359 W/m² | - |
| 1778088297 | 12.78° C | 44% | 1013.9 hPa | 0 mm | - | 425 W/m² | - |
| 1778087992 | 12.22° C | 42% | 1014 hPa | 0 mm | - | 459 W/m² | - |
| 1778087690 | 12.22° C | 45% | 1014.2 hPa | 0 mm | - | 764 W/m² | - |
| 1778087388 | 12.22° C | 42% | 1014 hPa | 0 mm | - | 728 W/m² | - |
| 1778087083 | 12.78° C | 40% | 1014.2 hPa | 0 mm | - | 635 W/m² | - |
| 1778086777 | 12.22° C | 41% | 1014.2 hPa | 0 mm | - | 468 W/m² | - |
| 1778086474 | 11.67° C | 41% | 1014 hPa | 0 mm | - | 480 W/m² | - |
| 1778086170 | 12.22° C | 41% | 1014.1 hPa | 0 mm | - | 504 W/m² | - |
| 1778085867 | 12.78° C | 43% | 1014 hPa | 0 mm | - | 594 W/m² | - |
| 1778085560 | 12.22° C | 43% | 1014.3 hPa | 0 mm | - | 482 W/m² | - |
| 1778085260 | 12.22° C | 44% | 1014 hPa | 0 mm | - | 525 W/m² | - |
| 1778084955 | 12.78° C | 41% | 1014.2 hPa | 0 mm | - | 636 W/m² | - |
| 1778084653 | 12.22° C | 40% | 1014.2 hPa | 0 mm | - | 665 W/m² | - |
| 1778084345 | 11.67° C | 44% | 1014.3 hPa | 0 mm | - | 458 W/m² | - |
| 1778084043 | 12.22° C | 42% | 1014.2 hPa | 0 mm | - | 311 W/m² | - |
| 1778083740 | 12.22° C | 46% | 1014.3 hPa | 0 mm | - | 384 W/m² | - |
| 1778083436 | 12.78° C | 44% | 1014.5 hPa | 0 mm | - | 652 W/m² | - |
| 1778083135 | 12.78° C | 43% | 1014.2 hPa | 0 mm | - | 692 W/m² | - |
* Rain latest hour (hover to see other rain measurements)
** Current wind speed in m/s (hover to see current wind gust speed)